Location: İstanbul
(41.0082°N, 28.9784°E)
Time: 21:41:19
(UTC+03:00)

NOAA 15 - Pass Details

Date: 28 April 2024
Orbit: 795 x 811 km, 98.6° (Epoch: 22 May)

Event Time Altitude Azimuth Distance (km) Brightness Sun altitude
Rises 20:19:59 0° 181° (S) 3,302 7.5 -4.7°
Reaches altitude 10° 20:22:24 10° 187° (S) 2,374 6.9 -5.1°
Maximum altitude 20:27:26 47° 261° (W) 1,050 5.7 -5.9°
Drops below altitude 10° 20:32:30 10° 335° (NNW) 2,380 7.9 -6.8°
Sets 20:34:56 0° 341° (NNW) 3,312 8.6 -7.2°
